EWG7JF EDDL-ESSA

Flight info

Callsign EWG7JF
Flight time 1h 40m
Altitude 37000
Route MEVEL1Z/05R MEVEL L179 OSNAD M170 BASUM DCT HAM DCT GIMRU DCT MIKNA N851 PELUP Z226 NILUG
Aircraft A319/M-SDE3FGHIRWY/LB1

Departure

Time 2026-05-07 18:09
Airport Düsseldorf Airport (EDDL)

Arrival

Time 2026-05-07 19:50
Airport Stockholm-Arlanda Airport (ESSA)
Time Latitude Longitude Altitude Speed Heading
2026-05-07 17:34 51.28108 6.76548 129 ft 0 kts 96°
2026-05-07 18:00 51.28110 6.76528 124 ft 4 kts 96°
2026-05-07 18:00 51.28112 6.76485 125 ft 4 kts 96°
2026-05-07 18:01 51.28116 6.76451 124 ft 4 kts 117°
2026-05-07 18:01 51.28132 6.76426 123 ft 4 kts 172°
2026-05-07 18:01 51.28157 6.76426 124 ft 4 kts 187°
2026-05-07 18:01 51.28181 6.76430 125 ft 3 kts 187°
2026-05-07 18:02 51.28233 6.76439 123 ft 4 kts 204°
2026-05-07 18:02 51.28245 6.76452 121 ft 0 kts 233°
2026-05-07 18:04 51.28245 6.76451 121 ft 0 kts 233°
2026-05-07 18:05 51.28237 6.76436 124 ft 4 kts 233°
2026-05-07 18:05 51.28208 6.76375 126 ft 9 kts 232°
2026-05-07 18:05 51.28177 6.76286 126 ft 11 kts 268°
2026-05-07 18:05 51.28199 6.76169 126 ft 12 kts 250°
2026-05-07 18:06 51.28144 6.76051 127 ft 15 kts 233°
2026-05-07 18:06 51.28072 6.75899 127 ft 19 kts 233°
2026-05-07 18:06 51.27982 6.75711 127 ft 23 kts 233°
2026-05-07 18:06 51.27914 6.75568 128 ft 25 kts 232°
2026-05-07 18:07 51.27840 6.75367 126 ft 9 kts 286°
2026-05-07 18:07 51.27893 6.75306 125 ft 10 kts 334°
2026-05-07 18:07 51.27963 6.75267 124 ft 11 kts
2026-05-07 18:07 51.28024 6.75329 124 ft 11 kts 52°
2026-05-07 18:08 51.28049 6.75383 124 ft 0 kts 53°
2026-05-07 18:08 51.28050 6.75385 124 ft 1 kts 53°
2026-05-07 18:09 51.28143 6.75582 128 ft 58 kts 52°
2026-05-07 18:09 51.28542 6.76418 129 ft 128 kts 53°
2026-05-07 18:09 51.29145 6.77693 503 ft 147 kts 53°
2026-05-07 18:09 51.29766 6.79018 1241 ft 147 kts 52°
2026-05-07 18:10 51.30407 6.80372 1776 ft 163 kts 52°
2026-05-07 18:10 51.31137 6.81912 2180 ft 185 kts 52°
2026-05-07 18:10 51.31963 6.83654 2543 ft 209 kts 52°
2026-05-07 18:10 51.32897 6.85619 2958 ft 234 kts 52°
2026-05-07 18:11 51.33917 6.87798 3609 ft 253 kts 53°
2026-05-07 18:11 51.35112 6.89888 4535 ft 259 kts 34°
2026-05-07 18:11 51.36793 6.90913 5507 ft 263 kts
2026-05-07 18:11 51.38594 6.91273 6551 ft 265 kts
2026-05-07 18:12 51.40432 6.91740 7474 ft 270 kts
2026-05-07 18:12 51.42301 6.92261 8380 ft 276 kts
2026-05-07 18:12 51.44220 6.92941 9262 ft 284 kts 18°
2026-05-07 18:12 51.46047 6.94135 10115 ft 290 kts 21°
2026-05-07 18:13 51.47970 6.95427 10558 ft 311 kts 21°
2026-05-07 18:13 51.50033 6.96820 10980 ft 330 kts 21°
2026-05-07 18:13 51.52175 6.98268 11720 ft 337 kts 21°
2026-05-07 18:13 51.54351 6.99738 12515 ft 342 kts 21°
2026-05-07 18:14 51.56557 7.01229 13337 ft 346 kts 21°
2026-05-07 18:14 51.58790 7.02742 14107 ft 350 kts 21°
2026-05-07 18:14 51.61050 7.04274 14818 ft 354 kts 21°
2026-05-07 18:14 51.63332 7.05824 15533 ft 358 kts 21°
2026-05-07 18:15 51.65642 7.07393 16235 ft 362 kts 21°
2026-05-07 18:15 51.67969 7.08976 16948 ft 365 kts 21°
2026-05-07 18:15 51.70322 7.10575 17660 ft 369 kts 21°
2026-05-07 18:15 51.72695 7.12190 18359 ft 373 kts 21°
2026-05-07 18:16 51.75096 7.13830 18960 ft 376 kts 21°
2026-05-07 18:16 51.77517 7.15489 19569 ft 380 kts 21°
2026-05-07 18:16 51.79957 7.17160 20177 ft 383 kts 21°
2026-05-07 18:16 51.82375 7.19028 20764 ft 388 kts 31°
2026-05-07 18:17 51.84477 7.21807 21384 ft 393 kts 44°
2026-05-07 18:17 51.86431 7.24933 21991 ft 397 kts 44°
2026-05-07 18:17 51.88387 7.28109 22584 ft 400 kts 44°
2026-05-07 18:17 51.90349 7.31333 23171 ft 404 kts 45°
2026-05-07 18:18 51.92325 7.34603 23730 ft 408 kts 45°
2026-05-07 18:18 51.94339 7.37948 24222 ft 411 kts 45°
2026-05-07 18:18 51.96342 7.41277 24707 ft 413 kts 45°
2026-05-07 18:18 51.98356 7.44621 25181 ft 416 kts 45°
2026-05-07 18:19 52.00385 7.47985 25658 ft 419 kts 45°
2026-05-07 18:19 52.02430 7.51378 26127 ft 421 kts 45°
2026-05-07 18:19 52.04480 7.54786 26597 ft 424 kts 45°
2026-05-07 18:19 52.06546 7.58226 27039 ft 426 kts 45°
2026-05-07 18:20 52.08625 7.61691 27494 ft 429 kts 45°
2026-05-07 18:20 52.10714 7.65177 27922 ft 432 kts 45°
2026-05-07 18:20 52.12814 7.68687 28364 ft 435 kts 45°
2026-05-07 18:20 52.14933 7.72227 28798 ft 437 kts 45°
2026-05-07 18:21 52.17059 7.75785 29223 ft 440 kts 45°
2026-05-07 18:21 52.19200 7.79378 29641 ft 443 kts 45°
2026-05-07 18:21 52.21348 7.82990 30053 ft 445 kts 45°
2026-05-07 18:21 52.23510 7.86626 30410 ft 448 kts 45°
2026-05-07 18:22 52.25685 7.90289 30751 ft 450 kts 45°
2026-05-07 18:22 52.27129 7.92727 30965 ft 452 kts 45°
2026-05-07 18:22 52.30013 7.97609 31107 ft 450 kts 45°
2026-05-07 18:23 52.34354 8.04978 31114 ft 450 kts 45°
2026-05-07 18:23 52.38687 8.12350 31113 ft 450 kts 45°
2026-05-07 18:24 52.43018 8.19743 31113 ft 450 kts 45°
2026-05-07 18:24 52.45191 8.23462 31412 ft 453 kts 45°
2026-05-07 18:24 52.47372 8.27197 31740 ft 455 kts 45°
2026-05-07 18:24 52.49564 8.30944 32127 ft 455 kts 46°
2026-05-07 18:25 52.51753 8.34697 32580 ft 454 kts 46°
2026-05-07 18:25 52.53933 8.38446 33017 ft 453 kts 46°
2026-05-07 18:25 52.56105 8.42194 33456 ft 453 kts 46°
2026-05-07 18:25 52.58274 8.45943 33892 ft 452 kts 46°
2026-05-07 18:26 52.60437 8.49685 34298 ft 452 kts 46°
2026-05-07 18:26 52.62604 8.53436 34642 ft 451 kts 46°
2026-05-07 18:26 52.64764 8.57174 35020 ft 450 kts 46°
2026-05-07 18:26 52.66920 8.60909 35347 ft 450 kts 46°
2026-05-07 18:27 52.69077 8.64648 35643 ft 450 kts 46°
2026-05-07 18:27 52.71233 8.68394 35906 ft 451 kts 46°
2026-05-07 18:27 52.73391 8.72159 36158 ft 452 kts 46°
2026-05-07 18:27 52.75552 8.75944 36415 ft 453 kts 46°
2026-05-07 18:28 52.77719 8.79716 36668 ft 453 kts 45°
2026-05-07 18:28 52.79969 8.83376 36908 ft 454 kts 43°
2026-05-07 18:28 52.82296 8.86915 37077 ft 455 kts 41°
2026-05-07 18:29 52.87023 8.93804 37101 ft 452 kts 41°
2026-05-07 18:29 52.91720 9.00715 37113 ft 451 kts 41°
2026-05-07 18:30 52.96346 9.07742 37103 ft 451 kts 42°
2026-05-07 18:30 53.00948 9.14821 37107 ft 451 kts 43°
2026-05-07 18:31 53.05555 9.21898 37108 ft 451 kts 42°
2026-05-07 18:31 53.10170 9.28966 37110 ft 451 kts 42°
2026-05-07 18:32 53.14778 9.36061 37115 ft 451 kts 42°
2026-05-07 18:32 53.19378 9.43165 37110 ft 451 kts 42°
2026-05-07 18:33 53.23972 9.50280 37115 ft 450 kts 43°
2026-05-07 18:33 53.28556 9.57407 37112 ft 450 kts 43°
2026-05-07 18:34 53.33142 9.64553 37119 ft 451 kts 43°
2026-05-07 18:34 53.37728 9.71712 37125 ft 451 kts 43°
2026-05-07 18:35 53.42309 9.78894 37130 ft 451 kts 43°
2026-05-07 18:35 53.46879 9.86087 37126 ft 451 kts 43°
2026-05-07 18:36 53.51453 9.93298 37130 ft 451 kts 43°
2026-05-07 18:36 53.56022 10.00524 37126 ft 451 kts 43°
2026-05-07 18:37 53.60582 10.07753 37126 ft 451 kts 43°
2026-05-07 18:37 53.65143 10.15019 37117 ft 451 kts 43°
2026-05-07 18:38 53.69819 10.22065 37119 ft 451 kts 36°
2026-05-07 18:38 53.74879 10.28323 37114 ft 451 kts 36°
2026-05-07 18:39 53.79954 10.34601 37147 ft 452 kts 36°
2026-05-07 18:39 53.84974 10.40846 37156 ft 450 kts 36°
2026-05-07 18:40 53.90015 10.47139 37152 ft 449 kts 36°
2026-05-07 18:40 53.95032 10.53426 37152 ft 449 kts 36°
2026-05-07 18:41 54.00054 10.59742 37135 ft 449 kts 36°
2026-05-07 18:41 54.05068 10.66055 37143 ft 449 kts 36°
2026-05-07 18:42 54.10084 10.72384 37147 ft 448 kts 36°
2026-05-07 18:42 54.15084 10.78720 37150 ft 447 kts 36°
2026-05-07 18:43 54.20071 10.85068 37156 ft 447 kts 37°
2026-05-07 18:43 54.25054 10.91430 37150 ft 447 kts 37°
2026-05-07 18:44 54.30029 10.97795 37166 ft 446 kts 37°
2026-05-07 18:44 54.34986 11.04165 37162 ft 445 kts 37°
2026-05-07 18:45 54.39937 11.10531 37163 ft 444 kts 37°
2026-05-07 18:45 54.44876 11.16907 37170 ft 444 kts 37°
2026-05-07 18:46 54.49804 11.23295 37161 ft 443 kts 37°
2026-05-07 18:46 54.54722 11.29693 37170 ft 443 kts 37°
2026-05-07 18:47 54.59671 11.36004 37166 ft 442 kts 35°
2026-05-07 18:47 54.64685 11.42146 37159 ft 442 kts 35°
2026-05-07 18:48 54.69705 11.48288 37157 ft 442 kts 35°
2026-05-07 18:48 54.74702 11.54483 37160 ft 442 kts 36°
2026-05-07 18:49 54.79688 11.60720 37162 ft 442 kts 36°
2026-05-07 18:49 54.84662 11.66960 37165 ft 441 kts 36°
2026-05-07 18:50 54.88800 11.72151 37158 ft 441 kts 36°
2026-05-07 18:50 54.93772 11.78409 37165 ft 441 kts 36°
2026-05-07 18:51 54.98744 11.84681 37161 ft 441 kts 36°
2026-05-07 18:51 55.03702 11.90975 37161 ft 441 kts 36°
2026-05-07 18:52 55.08662 11.97270 37162 ft 441 kts 36°
2026-05-07 18:52 55.13619 12.03574 37160 ft 441 kts 36°
2026-05-07 18:53 55.18563 12.09907 37156 ft 440 kts 36°
2026-05-07 18:53 55.23510 12.16261 37151 ft 440 kts 36°
2026-05-07 18:54 55.28457 12.22616 37146 ft 441 kts 36°
2026-05-07 18:54 55.33400 12.28996 37145 ft 441 kts 36°
2026-05-07 18:55 55.38331 12.35389 37158 ft 441 kts 36°
2026-05-07 18:55 55.43271 12.41804 37159 ft 441 kts 36°
2026-05-07 18:56 55.48213 12.48238 37160 ft 441 kts 36°
2026-05-07 18:56 55.53144 12.54686 37162 ft 441 kts 36°
2026-05-07 18:57 55.58076 12.61152 37169 ft 441 kts 36°
2026-05-07 18:57 55.62975 12.67601 37171 ft 442 kts 36°
2026-05-07 18:58 55.67902 12.74105 37177 ft 442 kts 36°
2026-05-07 18:58 55.72831 12.80615 37174 ft 442 kts 36°
2026-05-07 18:59 55.77766 12.87177 37178 ft 442 kts 36°
2026-05-07 18:59 55.82682 12.93745 37172 ft 442 kts 36°
2026-05-07 19:00 55.87612 13.00335 37169 ft 443 kts 37°
2026-05-07 19:00 55.92533 13.06937 37170 ft 443 kts 36°
2026-05-07 19:01 55.97455 13.13560 37152 ft 443 kts 36°
2026-05-07 19:01 56.02376 13.20208 37150 ft 443 kts 36°
2026-05-07 19:02 56.07303 13.26871 37148 ft 444 kts 36°
2026-05-07 19:02 56.12221 13.33548 37155 ft 444 kts 36°
2026-05-07 19:03 56.17108 13.40202 37155 ft 444 kts 36°
2026-05-07 19:03 56.22017 13.46921 37157 ft 443 kts 36°
2026-05-07 19:04 56.26922 13.53659 37166 ft 443 kts 36°
2026-05-07 19:04 56.31821 13.60407 37164 ft 443 kts 37°
2026-05-07 19:05 56.36712 13.67173 37165 ft 443 kts 37°
2026-05-07 19:05 56.41601 13.73943 37154 ft 443 kts 37°
2026-05-07 19:06 56.46486 13.80738 37149 ft 443 kts 37°
2026-05-07 19:06 56.53816 13.90974 37151 ft 443 kts 37°
2026-05-07 19:07 56.58699 13.97823 37146 ft 443 kts 37°
2026-05-07 19:07 56.63575 14.04685 37151 ft 444 kts 37°
2026-05-07 19:08 56.68457 14.11573 37138 ft 444 kts 37°
2026-05-07 19:08 56.73313 14.18442 37141 ft 444 kts 37°
2026-05-07 19:09 56.78192 14.25380 37144 ft 445 kts 37°
2026-05-07 19:09 56.83062 14.32336 37150 ft 445 kts 37°
2026-05-07 19:10 56.87931 14.39333 37137 ft 445 kts 38°
2026-05-07 19:10 56.92616 14.46779 37140 ft 446 kts 41°
2026-05-07 19:11 56.97136 14.54600 37136 ft 447 kts 42°
2026-05-07 19:11 57.01661 14.62411 37153 ft 447 kts 41°
2026-05-07 19:12 57.06230 14.70143 37147 ft 447 kts 41°
2026-05-07 19:12 57.10817 14.77866 37141 ft 447 kts 41°
2026-05-07 19:13 57.15368 14.85564 37152 ft 447 kts 41°
2026-05-07 19:13 57.19934 14.93363 37151 ft 447 kts 41°
2026-05-07 19:14 57.24490 15.01190 37152 ft 447 kts 41°
2026-05-07 19:14 57.29060 15.09047 37144 ft 448 kts 41°
2026-05-07 19:15 57.33605 15.16869 37152 ft 449 kts 41°
2026-05-07 19:15 57.38173 15.24762 37160 ft 449 kts 41°
2026-05-07 19:16 57.42739 15.32695 37163 ft 449 kts 41°
2026-05-07 19:16 57.47300 15.40649 37165 ft 450 kts 41°
2026-05-07 19:17 57.51855 15.48626 37168 ft 450 kts 41°
2026-05-07 19:17 57.56408 15.56645 37173 ft 450 kts 41°
2026-05-07 19:18 57.60967 15.64677 36842 ft 454 kts 41°
2026-05-07 19:18 57.63241 15.68683 36196 ft 454 kts 41°
2026-05-07 19:18 57.65531 15.72728 35574 ft 453 kts 41°
2026-05-07 19:19 57.67803 15.76747 35241 ft 447 kts 40°
2026-05-07 19:19 57.70049 15.80737 35139 ft 443 kts 40°
2026-05-07 19:19 57.74517 15.88697 35168 ft 444 kts 41°
2026-05-07 19:20 57.78980 15.96678 35169 ft 444 kts 41°
2026-05-07 19:20 57.83443 16.04686 35176 ft 444 kts 41°
2026-05-07 19:21 57.87904 16.12737 35174 ft 444 kts 41°
2026-05-07 19:21 57.92365 16.20786 35173 ft 444 kts 41°
2026-05-07 19:22 57.96834 16.28817 35173 ft 444 kts 41°
2026-05-07 19:22 58.01280 16.36893 34485 ft 443 kts 41°
2026-05-07 19:23 58.03531 16.40778 34022 ft 434 kts 34°
2026-05-07 19:23 58.05795 16.44527 33468 ft 434 kts 44°
2026-05-07 19:23 58.07759 16.48840 32906 ft 431 kts 44°
2026-05-07 19:23 58.09836 16.52871 32348 ft 426 kts 41°
2026-05-07 19:24 58.11943 16.56795 31827 ft 423 kts 40°
2026-05-07 19:24 58.14053 16.60640 31295 ft 420 kts 40°
2026-05-07 19:24 58.16159 16.64455 30780 ft 418 kts 40°
2026-05-07 19:24 58.18248 16.68254 30271 ft 415 kts 40°
2026-05-07 19:25 58.20315 16.72043 29695 ft 412 kts 40°
2026-05-07 19:25 58.22363 16.75829 29173 ft 410 kts 40°
2026-05-07 19:25 58.24398 16.79606 28609 ft 408 kts 40°
2026-05-07 19:25 58.26390 16.83311 28098 ft 406 kts 40°
2026-05-07 19:26 58.28402 16.87061 27609 ft 403 kts 40°
2026-05-07 19:26 58.30396 16.90781 27140 ft 400 kts 40°
2026-05-07 19:26 58.32377 16.94480 26692 ft 398 kts 40°
2026-05-07 19:26 58.34345 16.98159 26243 ft 395 kts 40°
2026-05-07 19:27 58.36297 17.01822 25796 ft 393 kts 40°
2026-05-07 19:27 58.38238 17.05471 25349 ft 391 kts 40°
2026-05-07 19:27 58.40162 17.09100 24907 ft 388 kts 41°
2026-05-07 19:27 58.42076 17.12716 24464 ft 386 kts 41°
2026-05-07 19:28 58.43979 17.16311 24017 ft 384 kts 41°
2026-05-07 19:28 58.45874 17.19889 23533 ft 382 kts 40°
2026-05-07 19:28 58.47761 17.23452 23000 ft 381 kts 40°
2026-05-07 19:28 58.49635 17.26997 22515 ft 378 kts 40°
2026-05-07 19:29 58.51494 17.30525 22050 ft 375 kts 41°
2026-05-07 19:29 58.53339 17.34036 21599 ft 372 kts 41°
2026-05-07 19:29 58.55165 17.37520 21156 ft 369 kts 41°
2026-05-07 19:29 58.56976 17.40982 20713 ft 367 kts 41°
2026-05-07 19:30 58.58772 17.44421 20293 ft 364 kts 41°
2026-05-07 19:30 58.60559 17.47840 19873 ft 361 kts 41°
2026-05-07 19:30 58.62335 17.51237 19468 ft 359 kts 41°
2026-05-07 19:30 58.64095 17.54604 19059 ft 357 kts 41°
2026-05-07 19:31 58.65850 17.57947 18658 ft 354 kts 39°
2026-05-07 19:31 58.67842 17.60585 18253 ft 343 kts 20°
2026-05-07 19:31 58.70050 17.62206 17828 ft 339 kts 15°
2026-05-07 19:31 58.72262 17.63728 17401 ft 336 kts 15°
2026-05-07 19:32 58.74460 17.65229 16991 ft 334 kts 15°
2026-05-07 19:32 58.76645 17.66717 16594 ft 331 kts 15°
2026-05-07 19:32 58.78812 17.68194 16280 ft 330 kts 15°
2026-05-07 19:32 58.80971 17.69672 16046 ft 329 kts 15°
2026-05-07 19:33 58.83098 17.71131 15820 ft 328 kts 15°
2026-05-07 19:33 58.85242 17.72602 15588 ft 326 kts 15°
2026-05-07 19:33 58.87376 17.74071 15360 ft 325 kts 15°
2026-05-07 19:33 58.89501 17.75535 15133 ft 324 kts 15°
2026-05-07 19:34 58.91623 17.76995 14911 ft 322 kts 15°
2026-05-07 19:34 58.93731 17.78449 14688 ft 321 kts 15°
2026-05-07 19:34 58.95831 17.79903 14486 ft 319 kts 15°
2026-05-07 19:34 58.97914 17.81350 14264 ft 317 kts 15°
2026-05-07 19:35 58.99988 17.82794 14049 ft 316 kts 15°
2026-05-07 19:35 59.02055 17.84235 13811 ft 315 kts 16°
2026-05-07 19:35 59.04112 17.85667 13563 ft 313 kts 15°
2026-05-07 19:35 59.06160 17.87089 13318 ft 312 kts 15°
2026-05-07 19:36 59.08198 17.88507 13150 ft 311 kts 16°
2026-05-07 19:36 59.09574 17.89468 13060 ft 310 kts 16°
2026-05-07 19:36 59.11605 17.90887 12926 ft 309 kts 16°
2026-05-07 19:36 59.13601 17.92280 12794 ft 308 kts 16°
2026-05-07 19:37 59.15619 17.93691 12661 ft 308 kts 16°
2026-05-07 19:37 59.17628 17.95099 12530 ft 307 kts 16°
2026-05-07 19:37 59.19636 17.96514 12398 ft 306 kts 16°
2026-05-07 19:37 59.21636 17.97921 12281 ft 305 kts 16°
2026-05-07 19:38 59.23629 17.99323 12169 ft 304 kts 16°
2026-05-07 19:38 59.25615 18.00724 12038 ft 303 kts 16°
2026-05-07 19:38 59.27593 18.02121 11909 ft 302 kts 16°
2026-05-07 19:38 59.29569 18.03512 11779 ft 301 kts 16°
2026-05-07 19:39 59.31539 18.04900 11655 ft 301 kts 16°
2026-05-07 19:39 59.33503 18.06290 11522 ft 300 kts 16°
2026-05-07 19:39 59.35465 18.07685 11394 ft 299 kts 16°
2026-05-07 19:39 59.37419 18.09075 11260 ft 298 kts 16°
2026-05-07 19:40 59.39365 18.10460 11180 ft 297 kts 16°
2026-05-07 19:40 59.41313 18.11847 11077 ft 298 kts 16°
2026-05-07 19:40 59.43257 18.13231 10828 ft 296 kts 15°
2026-05-07 19:40 59.45247 18.13946 10579 ft 287 kts 359°
2026-05-07 19:41 59.47215 18.14067 10331 ft 280 kts 358°
2026-05-07 19:41 59.49146 18.14138 10096 ft 275 kts 358°
2026-05-07 19:41 59.51054 18.14199 9788 ft 274 kts 358°
2026-05-07 19:41 59.52958 18.14258 9495 ft 273 kts 358°
2026-05-07 19:42 59.54850 18.14316 9203 ft 272 kts 358°
2026-05-07 19:42 59.56736 18.14374 8918 ft 271 kts 358°
2026-05-07 19:42 59.58615 18.14431 8620 ft 270 kts 359°
2026-05-07 19:42 59.60468 18.14489 8310 ft 268 kts 359°
2026-05-07 19:43 59.62328 18.14547 7998 ft 267 kts 359°
2026-05-07 19:43 59.64187 18.14606 7686 ft 266 kts 359°
2026-05-07 19:43 59.66033 18.14593 7384 ft 265 kts 353°
2026-05-07 19:43 59.67850 18.14031 7080 ft 263 kts 348°
2026-05-07 19:44 59.69647 18.13348 6777 ft 262 kts 348°
2026-05-07 19:44 59.71434 18.12647 6475 ft 261 kts 348°
2026-05-07 19:44 59.73215 18.11934 6152 ft 261 kts 348°
2026-05-07 19:44 59.74995 18.11213 5797 ft 262 kts 348°
2026-05-07 19:45 59.76787 18.10479 5273 ft 262 kts 348°
2026-05-07 19:45 59.78541 18.09748 4751 ft 254 kts 348°
2026-05-07 19:45 59.80247 18.08979 4223 ft 248 kts 342°
2026-05-07 19:45 59.81661 18.07194 3700 ft 242 kts 311°
2026-05-07 19:46 59.82378 18.04251 3189 ft 237 kts 278°
2026-05-07 19:46 59.82298 18.01055 2788 ft 228 kts 258°
2026-05-07 19:46 59.81670 17.98292 2541 ft 215 kts 231°
2026-05-07 19:46 59.80543 17.96649 2517 ft 195 kts 190°
2026-05-07 19:47 59.79243 17.96778 2516 ft 184 kts 172°
2026-05-07 19:47 59.77985 17.96557 2418 ft 182 kts 193°
2026-05-07 19:47 59.76747 17.96058 2207 ft 181 kts 189°
2026-05-07 19:47 59.75510 17.95604 1954 ft 181 kts 189°
2026-05-07 19:48 59.74291 17.95159 1736 ft 177 kts 189°
2026-05-07 19:48 59.73091 17.94722 1461 ft 172 kts 189°
2026-05-07 19:48 59.71959 17.94309 1254 ft 159 kts 189°
2026-05-07 19:48 59.70906 17.93929 1034 ft 149 kts 188°
2026-05-07 19:49 59.69909 17.93566 806 ft 141 kts 189°
2026-05-07 19:49 59.68962 17.93217 617 ft 136 kts 188°
2026-05-07 19:49 59.68045 17.92886 425 ft 133 kts 188°
2026-05-07 19:49 59.67140 17.92558 267 ft 132 kts 187°
2026-05-07 19:50 59.66241 17.92231 126 ft 129 kts 188°
2026-05-07 19:50 59.65476 17.91956 107 ft 89 kts 190°
2026-05-07 19:50 59.65033 17.91796 104 ft 40 kts 190°
2026-05-07 19:50 59.64814 17.91719 108 ft 30 kts 189°
2026-05-07 19:51 59.64637 17.91728 109 ft 19 kts 167°
2026-05-07 19:51 59.64502 17.91812 108 ft 18 kts 156°
2026-05-07 19:51 59.64455 17.91943 111 ft 7 kts 62°
2026-05-07 19:51 59.64495 17.91962 111 ft 9 kts 10°
2026-05-07 19:52 59.64582 17.91993 110 ft 16 kts 10°
2026-05-07 19:52 59.64700 17.92036 108 ft 16 kts 11°
2026-05-07 19:52 59.64746 17.92120 110 ft 8 kts 90°
2026-05-07 19:52 59.64732 17.92229 112 ft 10 kts 106°
2026-05-07 19:53 59.64708 17.92399 112 ft 15 kts 104°
2026-05-07 19:53 59.64680 17.92588 110 ft 9 kts 107°
2026-05-07 19:53 59.64699 17.92651 112 ft 6 kts 28°
2026-05-07 19:53 59.64722 17.92675 112 ft 0 kts 28°